Regional Weather Roundup
Issued by NWS

Home | Current Version | Previous Version | Text Only | Print | Product List | Glossary On
Versions: 1 2 3 4 5 6 7 8 9 10 11 12 13 14 15 16 17 18 19 20 21 22 23 24 25 26 27 28 29 30 31 32 33 34 35 36 37 38 39 40 41 42 43 44 45 46 47 48 49 50
000
ASUS45 KBOU 082110
RWRCO

WEATHER ROUNDUP FOR COLORADO
NATIONAL WEATHER SERVICE DENVER/BOULDER CO
300 PM MDT SAT AUG 08 2020

NOTE: "FAIR" INDICATES FEW OR NO CLOUDS BELOW 12000 FEET WITH NO
SIGNIFICANT WEATHER AND/OR OBSTRUCTIONS TO VISIBILITY.

COZ001>005-013-030-031-082200-
...NORTHWEST COLORADO...

CITY           SKY/WX    TMP DP  RH WIND       PRES   REMARKS
CRAIG          FAIR      91  15   6 NW13G25   30.19F
HAYDEN         FAIR      84  16   8 VRB3      30.24S
MEEKER         FAIR      85  17   8 SW9       30.21F
RANGELY        FAIR      92  20   7 SW13G21   30.12F
RABBIT EARS PA FAIR      68  21  17 NW5       30.57S
STEAMBOAT SPGS FAIR      85  18   8 SW12G23   30.24S
WALDEN         NOT AVBL
$$

COZ006>008-011-082200-
...WEST CENTRAL VALLEYS...

CITY           SKY/WX    TMP DP  RH WIND       PRES   REMARKS
GRAND JUNCTION FAIR      93  15   6 NW8G18    30.11F
MONTROSE       FAIR      91  28  10 W9G17     30.19F
EAGLE          FAIR      86  20   9 VRB6G17   30.25F
RIFLE          FAIR      94  21   7 W17G35    30.14F
DELTA          FAIR      94  23   7 S8        30.14F
NUCLA          NOT AVBL
$$

COZ017>023-064>068-082200-
...SOUTHWEST COLORADO...

CITY           SKY/WX    TMP DP  RH WIND       PRES   REMARKS
DURANGO        FAIR      85  28  12 VRB6G22   30.28F
CORTEZ         FAIR      89  32  13 NW9       30.24F
PAGOSA SPRINGS FAIR      83  25  12 SW13      30.35F
TELLURIDE      PTSUNNY   72  23  16 SW6G16    30.49F
WOLF CREEK PAS FAIR      63  28  27 SW13G28   30.74S
$$

COZ009-010-012-014-032>034-037-058>063-082200-
...CENTRAL COLORADO...

CITY           SKY/WX    TMP DP  RH WIND       PRES   REMARKS
ASPEN          FAIR      80  21  11 CALM      30.33F
BUENA VISTA    FAIR      81  13   8 W7G17     30.33S
COPPER MTN     FAIR      64  10  12 N6G23     30.69F
BERTHOUD PASS  FAIR      55  41  58 NW17G30   30.73R
COTTONWOOD PAS FAIR      77   3   6 N6        30.49S
GUNNISON       FAIR      81  28  14 CALM      30.33F
GRANBY         NOT AVBL
KREMMLING      FAIR      88  27  11 W14G21    30.31S
LEADVILLE      FAIR      68  15  13 W9G21     30.51S
MONARCH PASS   FAIR      63  21  20 W21G33    30.79S
SALIDA         FAIR      88  17   7 SW16      30.35F
SUNLIGHT       NOT AVBL
WILKERSON PASS PTSUNNY   64  10  12 SW5G21    30.65S
$$

COZ069>075-082200-
...SAN LUIS VALLEY/SANGRE DE CRISTO MOUNTAINS...

CITY           SKY/WX    TMP DP  RH WIND       PRES   REMARKS
ALAMOSA        FAIR      84  26  12 SE6       30.31F
DEL NORTE      FAIR      78  32  18 SE8       30.34F
LA VETA PASS   NOT AVBL
SAGUACHE       FAIR      79  32  18 S12       30.35F
$$

COZ035-036-038>040-082200-
...NORTHERN COLORADO FRONT RANGE...

CITY           SKY/WX    TMP DP  RH WIND       PRES   REMARKS
DENVER INTL AP FAIR      94  23   8 SE5       30.11F
AURORA         MOSUNNY   92  15   6 N3        30.14F
WATKINS        NOT AVBL
ERIE           NOT AVBL
BOULDER        NOT AVBL
CENTENNIAL     FAIR      92  19   7 E8G16     30.16F
BROOMFIELD     MOSUNNY   95  23   7 E12G21    30.13F
FORT COLLINS   FAIR      94  33  11 CALM      30.09F
LONGMONT       FAIR      97  29   9 E9        30.09F
$$

COZ041-046-047-076>085-087-088-082200-
...PIKES PEAK/PALMER DIVIDE AND SOUTHERN FOOTHILLS...

CITY           SKY/WX    TMP DP  RH WIND       PRES   REMARKS
COLO. SPRINGS  PTSUNNY   91  31  11 VRB5      30.20S
A. F. ACADEMY  PTSUNNY   85  22  10 S10       30.21S
SCHRIEVER AFB  NOT AVBL
CHEYENNE MTN   FAIR      82  29  14 CALM      30.22S
ELLICOTT       FAIR      91  24   9 N8        30.20F
FALCON         FAIR      86  22   9 S12       30.26F
FORT CARSON    FAIR      88  25  10 NW14G35   30.15S
LIMON          FAIR      89  20   8 E7        30.13F
MONUMENT HILL  NOT AVBL
CANON CITY     NOT AVBL
WALSENBURG     NOT AVBL
TRINIDAD       FAIR      90  35  14 E10G17    30.18F
$$

COZ042>045-048>051-090-091-082200-
...NORTHEAST COLORADO...

CITY           SKY/WX    TMP DP  RH WIND       PRES   REMARKS
GREELEY        FAIR      95  33  11 VRB5      30.06F
AKRON          FAIR      91  33  12 CALM      30.08F
BURLINGTON     FAIR      98  48  18 NE12      30.02F
WRAY           FAIR      91  52  25 E10       30.01S
YUMA           NOT AVBL
STERLING       FAIR      95  52  23 S3        30.01F
HOLYOKE        NOT AVBL
FORT MORGAN    FAIR      94  39  14 SE14      30.06S
$$

COZ086-089-092>099-082200-
...SOUTHEAST COLORADO...

CITY           SKY/WX    TMP DP  RH WIND       PRES   REMARKS
PUEBLO         FAIR      97  30   9 SE10G22   30.06F
LA JUNTA       FAIR      99  24   7 N9        30.03F
LAMAR          FAIR     101  46  15 NE6       29.92F
SPRINGFIELD      N/A     99  31   9 W14G24    30.02R
$$



USA.gov is the U.S. government's official web portal to all federal, state and local government web resources and services.